Погода во Флоресе

Гватемала     17°05′04″N   89°41′02″W
темп.,
°C
ветер,
м/с
пор.,
м/с
влажн.,
%
обл.,
%
осадки,
мм/ч
давл.,
гПа
погр.,
м
9 августа, вт
вт900:00+21в1399100 2.8 101578
03:00+21в1199100 0.4 101448
06:00+21юв0099100 1.4 101526
09:00+25юв0184100 0.1 1016425
12:00+29в146373 1.2 10141220
15:00+30в245596 1.1 10121523
18:00+25всв3780100 2.8 1013396
21:00+23всв269484 1.0 1015184
10 августа, ср
ср1000:00+22всв139467 1.1 101583
03:00+21ю009935 0.0 101416
06:00+21в009870 0.0 101528
09:00+28с016360 0.0 1015848
12:00+27в247782 1.0 1015796
15:00+26св2673100 0.4 1014458
18:00+24св31088100 0.8 1014594
21:00+23всв278998 0.1 1016359
11 августа, чт
чт1100:00+22всв119377 0.1 101623
03:00+22в0196100 0.1 101321
06:00+22в0095100 0.1 101424
09:00+24всв0185100 0.0 1016271
12:00+29в376178 0.0 10141255
15:00+29юв255969 0.1 1012766
18:00+27в3965100 0.1 1013504
21:00+24всв288586 0.0 1015237
12 августа, пт
пт1200:00+23вюв139192 0.0 101590
03:00+21ю009928 0.1 101414
06:00+21ююв009946 0.1 101527
09:00+28вюв13638 0.0 1015980
12:00+33юв23395 0.0 10132175
15:00+35юв143030 0.0 10102879
18:00+29в255972 0.0 1012427
21:00+24всв26823 0.3 1014161
13 августа, сб
сб1300:00+21юв119336 0.3 101414
03:00+20ссв10976 0.0 101412
06:00+20св119660 0.0 101417
09:00+29всв11552 0.0 1015892
12:00+34юв22362 0.0 10132118
15:00+35ююв233339 0.0 10102416
18:00+27в396786 0.3 1012651
21:00+24вюв158272 0.0 1013146